カタログに戻る

SL-14 DEB

運用中PO
NORAD 46465·DEBRIS·🇷🇺 Russia

打ち上げ Aug 15, 1991 から Plesetsk Cosmodrome

Loading…

次のパス (今後24時間)

TLE

最新Source: Space-Track

元期: Sep 13, 2026, 06:36 UTC

1 46465U 91056DA  26256.27522711 -.00000548  00000-0 -15636-2 0  9996
2 46465  82.5565  94.1413 0028858  80.4549 279.9829 13.12057283292530

AllMySatでSL-14 DEBをリアルタイム追跡

Download on the App Store